Voltar ao catálogo

COSMOS 1040

AtivoMilitarLEO
NORAD 11049·PAYLOAD·🇷🇺 Russia

Lançado Oct 4, 1978 de Plesetsk Cosmodrome

Loading…

Próximas Passagens (próximas 24 horas)

TLE

AtualizadoSource: Space-Track

Época: Sep 14, 2026, 09:12 UTC

1 11049U 78091G   26257.38349932 -.00000029  00000-0 -95497-4 0  9994
2 11049  74.0317 252.9556 0031195 299.8794 128.2546 12.40882261171898

Acompanhe COSMOS 1040 em tempo real com AllMySat

Download on the App Store